Time,TemperatureF,DewpointF,PressureIn,WindDirection,WindDirectionDegrees,WindSpeedMPH,WindSpeedGustMPH,Humidity,HourlyPrecipIn,Conditions,Clouds,dailyrainin,SoftwareType,DateUTC
2013-09-12 00:00:00,71.4,65.3,30.09,NNE,28,0.0,0.0,81,0.00,CLR,,0.00,WeatherDisplay:10.37,2013-09-12 04:00:00,
2013-09-12 00:05:00,71.4,65.2,30.09,NNE,27,0.0,0.0,81,0.00,CLR,,0.00,WeatherDisplay:10.37,2013-09-12 04:05:00,
2013-09-12 00:10:00,71.2,65.1,30.09,NNE,27,0.0,0.0,81,0.00,CLR,,0.00,WeatherDisplay:10.37,2013-09-12 04:10:00,
2013-09-12 00:15:00,71.2,65.1,30.09,NNE,27,0.0,0.0,81,0.00,CLR,,0.00,WeatherDisplay:10.37,2013-09-12 04:15:00,
2013-09-12 00:20:00,71.1,64.9,30.09,NNE,27,0.0,0.0,81,0.00,CLR,,0.00,WeatherDisplay:10.37,2013-09-12 04:20:00,
2013-09-12 00:25:00,71.1,64.9,30.09,NNE,27,0.0,0.0,81,0.00,CLR,,0.00,WeatherDisplay:10.37,2013-09-12 04:25:00,
2013-09-12 00:30:00,70.9,64.8,30.09,NNE,27,0.0,0.0,81,0.00,CLR,,0.00,WeatherDisplay:10.37,2013-09-12 04:30:00,
2013-09-12 00:35:00,70.9,65.1,30.09,NNE,27,0.0,0.0,82,0.00,CLR,,0.00,WeatherDisplay:10.37,2013-09-12 04:35:00,
2013-09-12 00:40:00,70.7,64.9,30.09,NNE,27,0.0,0.0,82,0.00,CLR,,0.00,WeatherDisplay:10.37,2013-09-12 04:40:00,
2013-09-12 00:45:00,70.7,64.9,30.09,NNE,27,0.0,0.0,82,0.00,CLR,,0.00,WeatherDisplay:10.37,2013-09-12 04:45:00,
2013-09-12 00:50:00,70.7,64.9,30.09,NNE,27,0.0,0.0,82,0.00,CLR,,0.00,WeatherDisplay:10.37,2013-09-12 04:50:00,
2013-09-12 00:55:00,70.5,65.1,30.09,NNE,27,0.0,0.0,83,0.00,CLR,,0.00,WeatherDisplay:10.37,2013-09-12 04:55:00,
2013-09-12 01:00:00,70.4,65.0,30.09,NNE,27,0.0,0.0,83,0.00,CLR,,0.00,WeatherDisplay:10.37,2013-09-12 05:00:00,
2013-09-12 01:05:00,70.3,64.9,30.09,NNE,27,0.0,0.0,83,0.00,CLR,,0.00,WeatherDisplay:10.37,2013-09-12 05:05:00,
2013-09-12 01:10:00,70.3,64.9,30.06,NNE,28,0.0,0.0,83,0.00,CLR,,0.00,WeatherDisplay:10.37,2013-09-12 05:10:00,
2013-09-12 01:15:00,70.2,64.8,30.06,NNE,27,0.0,0.0,83,0.00,CLR,,0.00,WeatherDisplay:10.37,2013-09-12 05:15:00,
2013-09-12 01:20:00,70.2,64.8,30.06,NNE,27,0.0,0.0,83,0.00,CLR,,0.00,WeatherDisplay:10.37,2013-09-12 05:20:00,
2013-09-12 01:25:00,70.2,65.1,30.06,NNE,27,0.0,0.0,84,0.00,CLR,,0.00,WeatherDisplay:10.37,2013-09-12 05:25:00,
2013-09-12 01:30:00,70.2,65.1,30.06,NNE,27,0.0,0.0,84,0.00,CLR,,0.00,WeatherDisplay:10.37,2013-09-12 05:30:00,
2013-09-12 01:35:00,70.2,65.1,30.06,NNE,27,0.0,0.0,84,0.00,CLR,,0.00,WeatherDisplay:10.37,2013-09-12 05:35:00,
2013-09-12 01:40:00,70.2,65.1,30.06,NNE,27,0.0,0.0,84,0.00,CLR,,0.00,WeatherDisplay:10.37,2013-09-12 05:40:00,
2013-09-12 01:45:00,70.2,65.4,30.06,NNE,27,0.0,0.0,85,0.00,CLR,,0.00,WeatherDisplay:10.37,2013-09-12 05:45:00,
2013-09-12 01:50:00,70.2,65.4,30.06,NNE,27,0.0,0.0,85,0.00,CLR,,0.00,WeatherDisplay:10.37,2013-09-12 05:50:00,
2013-09-12 01:55:00,70.3,65.6,30.06,NNE,27,0.0,0.0,85,0.00,CLR,,0.00,WeatherDisplay:10.37,2013-09-12 05:55:00,
2013-09-12 02:00:00,70.3,65.6,30.06,NNE,27,0.0,0.0,85,0.00,CLR,,0.00,WeatherDisplay:10.37,2013-09-12 06:00:00,
2013-09-12 02:05:00,70.3,66.0,30.06,NNE,27,0.0,0.0,86,0.00,CLR,,0.00,WeatherDisplay:10.37,2013-09-12 06:05:00,
2013-09-12 02:10:00,70.3,66.0,30.06,NNE,27,0.0,0.0,86,0.00,CLR,,0.00,WeatherDisplay:10.37,2013-09-12 06:10:00,
2013-09-12 02:20:00,70.3,66.0,30.06,NNE,27,0.0,0.0,86,0.00,CLR,,0.00,WeatherDisplay:10.37,2013-09-12 06:20:00,
2013-09-12 02:25:00,70.3,66.0,30.06,NNE,27,0.0,0.0,86,0.00,CLR,,0.00,WeatherDisplay:10.37,2013-09-12 06:25:00,
2013-09-12 02:30:00,70.3,66.0,30.06,NNE,27,0.0,0.0,86,0.00,CLR,,0.00,WeatherDisplay:10.37,2013-09-12 06:30:00,
2013-09-12 02:35:00,70.3,66.0,30.06,NNE,27,0.0,0.0,86,0.00,CLR,,0.00,WeatherDisplay:10.37,2013-09-12 06:35:00,
2013-09-12 02:40:00,70.3,66.0,30.06,NNE,27,0.0,0.0,86,0.00,CLR,,0.00,WeatherDisplay:10.37,2013-09-12 06:40:00,
2013-09-12 02:45:00,70.2,65.8,30.06,NNE,27,0.0,0.0,86,0.00,CLR,,0.00,WeatherDisplay:10.37,2013-09-12 06:45:00,
2013-09-12 02:50:00,70.2,65.8,30.06,NNE,27,0.0,0.0,86,0.00,CLR,,0.00,WeatherDisplay:10.37,2013-09-12 06:50:00,
2013-09-12 02:55:00,70.2,65.8,30.06,NNE,27,0.0,0.0,86,0.00,CLR,,0.00,WeatherDisplay:10.37,2013-09-12 06:55:00,
2013-09-12 03:00:00,70.2,65.8,30.06,NNE,27,0.0,0.0,86,0.00,CLR,,0.00,WeatherDisplay:10.37,2013-09-12 07:00:00,
2013-09-12 03:05:00,70.2,65.8,30.06,NNE,27,0.0,0.0,86,0.00,CLR,,0.00,WeatherDisplay:10.37,2013-09-12 07:05:00,
2013-09-12 03:10:00,70.2,65.8,30.06,NNE,27,0.0,0.0,86,0.00,CLR,,0.00,WeatherDisplay:10.37,2013-09-12 07:10:00,
2013-09-12 03:15:00,70.0,65.3,30.06,NNE,27,0.0,0.0,85,0.00,CLR,,0.00,WeatherDisplay:10.37,2013-09-12 07:15:00,
2013-09-12 03:20:00,70.0,65.3,30.06,NNE,27,0.0,0.0,85,0.00,CLR,,0.00,WeatherDisplay:10.37,2013-09-12 07:20:00,
2013-09-12 03:25:00,70.2,65.4,30.06,NE,41,0.0,0.0,85,0.00,CLR,,0.00,WeatherDisplay:10.37,2013-09-12 07:25:00,
2013-09-12 03:30:00,70.0,65.3,30.06,East,83,0.0,0.0,85,0.00,CLR,,0.00,WeatherDisplay:10.37,2013-09-12 07:30:00,
2013-09-12 03:35:00,70.0,65.3,30.06,ESE,105,0.0,0.0,85,0.00,CLR,,0.00,WeatherDisplay:10.37,2013-09-12 07:35:00,
2013-09-12 13:05:00,91.8,66.1,29.97,SE,141,0.0,0.0,43,0.00,CLR,,0.00,WeatherDisplay:10.37,2013-09-12 17:05:00,
2013-09-12 13:10:00,91.9,65.6,29.97,SW,223,0.0,0.0,42,0.00,CLR,,0.00,WeatherDisplay:10.37,2013-09-12 17:10:00,
2013-09-12 13:15:00,91.8,66.1,29.97,North,5,0.0,0.0,43,0.00,CLR,,0.00,WeatherDisplay:10.37,2013-09-12 17:15:00,
2013-09-12 13:20:00,91.6,65.9,29.97,SSE,150,0.0,0.0,43,0.00,CLR,,0.00,WeatherDisplay:10.37,2013-09-12 17:20:00,
2013-09-12 13:25:00,91.6,65.9,29.97,SW,231,0.0,0.0,43,0.00,CLR,,0.00,WeatherDisplay:10.37,2013-09-12 17:25:00,
2013-09-12 13:30:00,91.6,65.9,29.97,NNW,330,0.0,0.0,43,0.00,CLR,,0.00,WeatherDisplay:10.37,2013-09-12 17:30:00,
2013-09-12 13:35:00,91.6,65.9,29.97,NNE,13,0.0,0.0,43,0.00,CLR,,0.00,WeatherDisplay:10.37,2013-09-12 17:35:00,
2013-09-12 13:40:00,91.8,65.4,29.97,NW,313,0.0,0.0,42,0.00,CLR,,0.00,WeatherDisplay:10.37,2013-09-12 17:40:00,
2013-09-12 13:45:00,92.1,64.3,29.97,WNW,286,0.0,0.0,40,0.00,CLR,,0.00,WeatherDisplay:10.37,2013-09-12 17:45:00,
2013-09-12 13:50:00,92.5,66.1,29.97,WSW,245,0.0,0.0,42,0.00,CLR,,0.00,WeatherDisplay:10.37,2013-09-12 17:50:00,
2013-09-12 13:55:00,92.7,65.5,29.97,WNW,292,0.0,0.0,41,0.00,CLR,,0.00,WeatherDisplay:10.37,2013-09-12 17:55:00,
2013-09-12 14:00:00,93.0,63.7,29.94,NW,324,0.0,0.0,38,0.00,CLR,,0.00,WeatherDisplay:10.37,2013-09-12 18:00:00,
2013-09-12 14:05:00,93.4,64.8,29.94,West,264,0.0,0.0,39,0.00,CLR,,0.00,WeatherDisplay:10.37,2013-09-12 18:05:00,
2013-09-12 14:10:00,93.7,65.0,29.94,WNW,298,0.0,0.0,39,0.00,CLR,,0.00,WeatherDisplay:10.37,2013-09-12 18:10:00,
2013-09-12 14:15:00,93.9,64.5,29.94,NNW,340,0.0,0.0,38,0.00,CLR,,0.00,WeatherDisplay:10.37,2013-09-12 18:15:00,
2013-09-12 14:20:00,93.7,64.2,29.94,North,351,0.0,0.0,38,0.00,CLR,,0.00,WeatherDisplay:10.37,2013-09-12 18:20:00,
2013-09-12 14:25:00,92.8,64.2,29.94,North,356,0.0,0.0,39,0.00,CLR,,0.00,WeatherDisplay:10.37,2013-09-12 18:25:00,
2013-09-12 14:30:00,92.1,64.3,29.94,North,357,0.0,0.0,40,0.00,CLR,,0.00,WeatherDisplay:10.37,2013-09-12 18:30:00,
2013-09-12 14:35:00,91.3,65.6,29.94,North,357,0.0,0.0,43,0.00,CLR,,0.00,WeatherDisplay:10.37,2013-09-12 18:35:00,
2013-09-12 14:40:00,90.9,64.6,29.94,North,11,0.0,0.0,42,0.00,CLR,,0.00,WeatherDisplay:10.37,2013-09-12 18:40:00,
2013-09-12 14:45:00,90.7,65.1,29.94,NNW,340,0.0,0.0,43,0.00,CLR,,0.00,WeatherDisplay:10.37,2013-09-12 18:45:00,
2013-09-12 14:50:00,91.0,64.7,29.94,North,4,0.0,0.0,42,0.00,CLR,,0.00,WeatherDisplay:10.37,2013-09-12 18:50:00,
2013-09-12 14:55:00,90.9,63.9,29.92,ESE,114,0.0,0.0,41,0.00,CLR,,0.00,WeatherDisplay:10.37,2013-09-12 18:55:00,
2013-09-12 15:00:00,90.7,63.7,29.91,SSE,153,0.0,0.0,41,0.00,CLR,,0.00,WeatherDisplay:10.37,2013-09-12 19:00:00,
2013-09-12 15:05:00,90.5,64.3,29.91,SSW,193,0.0,0.0,42,0.00,CLR,,0.00,WeatherDisplay:10.37,2013-09-12 19:05:00,
2013-09-12 15:10:00,90.5,64.3,29.91,SSW,195,0.0,0.0,42,0.00,CLR,,0.00,WeatherDisplay:10.37,2013-09-12 19:10:00,
2013-09-12 15:15:00,90.5,63.6,29.91,WSW,255,0.0,0.0,41,0.00,CLR,,0.00,WeatherDisplay:10.37,2013-09-12 19:15:00,
2013-09-12 15:20:00,90.5,63.6,29.91,NNW,331,0.0,0.0,41,0.00,CLR,,0.00,WeatherDisplay:10.37,2013-09-12 19:20:00,
2013-09-12 15:25:00,90.1,63.3,29.89,NNW,329,0.0,0.0,41,0.00,CLR,,0.00,WeatherDisplay:10.37,2013-09-12 19:25:00,
2013-09-12 15:30:00,90.0,63.1,29.88,NNW,329,0.0,0.0,41,0.00,CLR,,0.00,WeatherDisplay:10.37,2013-09-12 19:30:00,
2013-09-12 15:35:00,89.9,63.1,29.88,NW,309,0.0,0.0,41,0.00,CLR,,0.00,WeatherDisplay:10.37,2013-09-12 19:35:00,
2013-09-12 15:40:00,89.6,63.5,29.88,WSW,240,0.0,0.0,42,0.00,CLR,,0.00,WeatherDisplay:10.37,2013-09-12 19:40:00,
2013-09-12 15:45:00,89.4,61.9,29.88,SSE,155,0.0,0.0,40,0.00,CLR,,0.00,WeatherDisplay:10.37,2013-09-12 19:45:00,
2013-09-12 15:50:00,89.4,63.3,29.88,SSE,157,0.0,0.0,42,0.00,CLR,,0.00,WeatherDisplay:10.37,2013-09-12 19:50:00,
2013-09-12 15:55:00,89.1,63.0,29.88,SE,139,0.0,0.0,42,0.00,CLR,,0.00,WeatherDisplay:10.37,2013-09-12 19:55:00,
2013-09-12 16:00:00,89.0,63.6,29.88,SE,146,0.0,0.0,43,0.00,CLR,,0.00,WeatherDisplay:10.37,2013-09-12 20:00:00,
2013-09-12 16:05:00,88.7,63.3,29.88,SSE,162,0.0,0.0,43,0.00,CLR,,0.00,WeatherDisplay:10.37,2013-09-12 20:05:00,
2013-09-12 16:10:00,88.7,63.3,29.88,ESE,122,0.0,0.0,43,0.00,CLR,,0.00,WeatherDisplay:10.37,2013-09-12 20:10:00,
2013-09-12 16:15:00,88.5,63.8,29.88,SSE,153,0.0,0.0,44,0.00,CLR,,0.00,WeatherDisplay:10.37,2013-09-12 20:15:00,
2013-09-12 16:20:00,88.5,63.8,29.88,SE,145,0.0,0.0,44,0.00,CLR,,0.00,WeatherDisplay:10.37,2013-09-12 20:20:00,
2013-09-12 16:25:00,88.5,63.2,29.88,SE,126,0.0,0.0,43,0.00,CLR,,0.00,WeatherDisplay:10.37,2013-09-12 20:25:00,
2013-09-12 16:30:00,88.3,63.0,29.88,South,190,0.0,0.0,43,0.00,CLR,,0.00,WeatherDisplay:10.37,2013-09-12 20:30:00,
2013-09-12 16:35:00,88.3,63.0,29.88,SSE,168,0.0,0.0,43,0.00,CLR,,0.00,WeatherDisplay:10.37,2013-09-12 20:35:00,
2013-09-12 16:40:00,88.4,63.1,29.88,East,83,0.0,0.0,43,0.00,CLR,,0.00,WeatherDisplay:10.37,2013-09-12 20:40:00,
2013-09-12 16:45:00,88.5,63.2,29.88,NE,41,0.0,0.0,43,0.00,CLR,,0.00,WeatherDisplay:10.37,2013-09-12 20:45:00,
2013-09-12 16:50:00,88.5,63.8,29.88,NNW,337,0.0,0.0,44,0.00,CLR,,0.00,WeatherDisplay:10.37,2013-09-12 20:50:00,
2013-09-12 16:55:00,88.5,63.8,29.86,WNW,298,0.0,0.0,44,0.00,CLR,,0.00,WeatherDisplay:10.37,2013-09-12 20:55:00,
2013-09-12 17:00:00,88.3,63.0,29.85,West,276,0.0,0.0,43,0.00,CLR,,0.00,WeatherDisplay:10.37,2013-09-12 21:00:00,
2013-09-12 17:05:00,88.3,63.0,29.85,NW,325,0.0,0.0,43,0.00,CLR,,0.00,WeatherDisplay:10.37,2013-09-12 21:05:00,
2013-09-12 17:10:00,88.2,62.8,29.85,NW,320,0.0,0.0,43,0.00,CLR,,0.00,WeatherDisplay:10.37,2013-09-12 21:10:00,
2013-09-12 17:15:00,88.0,63.3,29.85,SSW,193,0.0,0.0,44,0.00,CLR,,0.00,WeatherDisplay:10.37,2013-09-12 21:15:00,
2013-09-12 17:20:00,87.6,62.4,29.85,SSW,195,0.0,0.0,43,0.00,CLR,,0.00,WeatherDisplay:10.37,2013-09-12 21:20:00,
2013-09-12 17:25:00,87.3,62.7,29.85,SSW,212,0.0,0.0,44,0.00,CLR,,0.00,WeatherDisplay:10.37,2013-09-12 21:25:00,
2013-09-12 17:30:00,87.0,62.4,29.85,South,176,0.0,0.0,44,0.00,CLR,,0.00,WeatherDisplay:10.37,2013-09-12 21:30:00,
2013-09-12 17:35:00,86.8,62.3,29.85,SE,138,0.0,0.0,44,0.00,CLR,,0.00,WeatherDisplay:10.37,2013-09-12 21:35:00,
2013-09-12 17:40:00,86.6,62.7,29.85,SSW,208,0.0,0.0,45,0.00,CLR,,0.00,WeatherDisplay:10.37,2013-09-12 21:40:00,
2013-09-12 17:45:00,86.4,62.5,29.85,SSW,207,0.0,0.0,45,0.00,CLR,,0.00,WeatherDisplay:10.37,2013-09-12 21:45:00,
2013-09-12 17:50:00,86.0,62.2,29.85,SSW,203,0.0,0.0,45,0.00,CLR,,0.00,WeatherDisplay:10.37,2013-09-12 21:50:00,
2013-09-12 17:55:00,85.8,62.0,29.85,SSW,198,0.0,0.0,45,0.00,CLR,,0.00,WeatherDisplay:10.37,2013-09-12 21:55:00,
2013-09-12 18:00:00,85.4,62.3,29.85,SW,215,0.0,0.0,46,0.00,CLR,,0.00,WeatherDisplay:10.37,2013-09-12 22:00:00,
2013-09-12 18:05:00,85.1,62.0,29.85,WSW,240,0.0,0.0,46,0.00,CLR,,0.00,WeatherDisplay:10.37,2013-09-12 22:05:00,
2013-09-12 18:10:00,84.7,61.7,29.85,WNW,296,0.0,0.0,46,0.00,CLR,,0.00,WeatherDisplay:10.37,2013-09-12 22:10:00,
2013-09-12 18:15:00,84.6,61.5,29.85,NW,326,0.0,0.0,46,0.00,CLR,,0.00,WeatherDisplay:10.37,2013-09-12 22:15:00,
2013-09-12 18:20:00,84.4,61.3,29.85,NNW,345,0.0,0.0,46,0.00,CLR,,0.00,WeatherDisplay:10.37,2013-09-12 22:20:00,
2013-09-12 18:25:00,84.2,61.2,29.85,North,357,0.0,0.0,46,0.00,CLR,,0.00,WeatherDisplay:10.37,2013-09-12 22:25:00,
2013-09-12 18:30:00,83.8,60.8,29.85,North,6,0.0,0.0,46,0.00,CLR,,0.00,WeatherDisplay:10.37,2013-09-12 22:30:00,
2013-09-12 18:35:00,83.6,60.6,29.85,NNE,15,0.0,0.0,46,0.00,CLR,,0.00,WeatherDisplay:10.37,2013-09-12 22:35:00,
2013-09-12 18:40:00,83.3,60.9,29.85,NNE,15,0.0,0.0,47,0.00,CLR,,0.00,WeatherDisplay:10.37,2013-09-12 22:40:00,
2013-09-12 18:45:00,82.9,61.2,29.85,NNE,15,0.0,0.0,48,0.00,CLR,,0.00,WeatherDisplay:10.37,2013-09-12 22:45:00,
2013-09-12 18:50:00,82.4,61.3,29.85,NNE,15,0.0,0.0,49,0.00,CLR,,0.00,WeatherDisplay:10.37,2013-09-12 22:50:00,
2013-09-12 18:55:00,81.9,61.4,29.85,NNE,15,0.0,0.0,50,0.00,CLR,,0.00,WeatherDisplay:10.37,2013-09-12 22:55:00,
2013-09-12 19:00:00,81.6,61.7,29.85,NNE,13,0.0,0.0,51,0.00,CLR,,0.00,WeatherDisplay:10.37,2013-09-12 23:00:00,
2013-09-12 19:05:00,81.3,62.0,29.85,NNE,12,0.0,0.0,52,0.00,CLR,,0.00,WeatherDisplay:10.37,2013-09-12 23:05:00,
2013-09-12 19:10:00,81.3,62.0,29.85,NNE,12,0.0,0.0,52,0.00,CLR,,0.00,WeatherDisplay:10.37,2013-09-12 23:10:00,
2013-09-12 19:15:00,81.1,62.4,29.85,North,11,0.0,0.0,53,0.00,CLR,,0.00,WeatherDisplay:10.37,2013-09-12 23:15:00,
2013-09-12 19:20:00,81.1,62.4,29.85,North,11,0.0,0.0,53,0.00,CLR,,0.00,WeatherDisplay:10.37,2013-09-12 23:20:00,
2013-09-12 19:25:00,81.0,62.7,29.85,North,11,0.0,0.0,54,0.00,CLR,,0.00,WeatherDisplay:10.37,2013-09-12 23:25:00,
2013-09-12 19:30:00,81.0,63.3,29.85,NNE,12,0.0,0.0,55,0.00,CLR,,0.00,WeatherDisplay:10.37,2013-09-12 23:30:00,
2013-09-12 19:35:00,80.8,63.1,29.85,North,358,0.0,0.0,55,0.00,CLR,,0.00,WeatherDisplay:10.37,2013-09-12 23:35:00,
2013-09-12 19:40:00,80.4,62.8,29.85,NNE,18,0.0,0.0,55,0.00,CLR,,0.00,WeatherDisplay:10.37,2013-09-12 23:40:00,
2013-09-12 19:45:00,80.2,62.6,29.85,NE,46,0.0,0.0,55,0.00,CLR,,0.00,WeatherDisplay:10.37,2013-09-12 23:45:00,
2013-09-12 19:50:00,80.0,62.4,29.85,NE,56,0.0,0.0,55,0.00,CLR,,0.00,WeatherDisplay:10.37,2013-09-12 23:50:00,
2013-09-12 19:55:00,79.7,62.6,29.85,NE,53,0.0,0.0,56,0.00,CLR,,0.00,WeatherDisplay:10.37,2013-09-12 23:55:00,
2013-09-12 20:00:00,79.5,62.9,29.85,NE,52,0.0,0.0,57,0.00,CLR,,0.00,WeatherDisplay:10.37,2013-09-13 00:00:00,
2013-09-12 20:05:00,79.0,63.0,29.85,NE,52,0.0,0.0,58,0.00,CLR,,0.00,WeatherDisplay:10.37,2013-09-13 00:05:00,
2013-09-12 20:10:00,78.6,62.6,29.85,NE,52,0.0,0.0,58,0.00,CLR,,0.00,WeatherDisplay:10.37,2013-09-13 00:10:00,
2013-09-12 20:15:00,78.4,62.9,29.85,NE,52,0.0,0.0,59,0.00,CLR,,0.00,WeatherDisplay:10.37,2013-09-13 00:15:00,
2013-09-12 20:20:00,78.3,62.8,29.85,NE,52,0.0,0.0,59,0.00,CLR,,0.00,WeatherDisplay:10.37,2013-09-13 00:20:00,
2013-09-12 20:25:00,78.0,63.0,29.85,NE,52,0.0,0.0,60,0.00,CLR,,0.00,WeatherDisplay:10.37,2013-09-13 00:25:00,
2013-09-12 20:30:00,77.7,63.2,29.85,NE,52,0.0,0.0,61,0.00,CLR,,0.00,WeatherDisplay:10.37,2013-09-13 00:30:00,
2013-09-12 20:35:00,77.5,63.0,29.85,NE,52,0.0,0.0,61,0.00,CLR,,0.00,WeatherDisplay:10.37,2013-09-13 00:35:00,
2013-09-12 20:40:00,77.3,63.3,29.87,NE,52,0.0,0.0,62,0.00,CLR,,0.00,WeatherDisplay:10.37,2013-09-13 00:40:00,
2013-09-12 20:45:00,77.2,63.2,29.88,NE,52,0.0,0.0,62,0.00,CLR,,0.00,WeatherDisplay:10.37,2013-09-13 00:45:00,
2013-09-12 20:50:00,77.0,63.4,29.88,NE,52,0.0,0.0,63,0.00,CLR,,0.00,WeatherDisplay:10.37,2013-09-13 00:50:00,
2013-09-12 20:55:00,76.8,63.3,29.88,NE,52,0.0,0.0,63,0.00,CLR,,0.00,WeatherDisplay:10.37,2013-09-13 00:55:00,
2013-09-12 21:00:00,76.8,63.7,29.88,NE,52,0.0,0.0,64,0.00,CLR,,0.00,WeatherDisplay:10.37,2013-09-13 01:00:00,
2013-09-12 21:05:00,76.6,63.5,29.88,NE,52,0.0,0.0,64,0.00,CLR,,0.00,WeatherDisplay:10.37,2013-09-13 01:05:00,
2013-09-12 21:10:00,76.5,63.8,29.88,NE,52,0.0,0.0,65,0.00,CLR,,0.00,WeatherDisplay:10.37,2013-09-13 01:10:00,
2013-09-12 21:15:00,76.3,64.1,29.88,NE,52,0.0,0.0,66,0.00,CLR,,0.00,WeatherDisplay:10.37,2013-09-13 01:15:00,
2013-09-12 21:20:00,76.1,63.9,29.88,NE,52,0.0,0.0,66,0.00,CLR,,0.00,WeatherDisplay:10.37,2013-09-13 01:20:00,
2013-09-12 21:25:00,76.1,64.3,29.88,NE,52,0.0,0.0,67,0.00,CLR,,0.00,WeatherDisplay:10.37,2013-09-13 01:25:00,
2013-09-12 21:30:00,75.9,64.6,29.88,NE,52,0.0,0.0,68,0.00,CLR,,0.00,WeatherDisplay:10.37,2013-09-13 01:30:00,
2013-09-12 21:35:00,75.9,64.6,29.88,NE,52,0.0,0.0,68,0.00,CLR,,0.00,WeatherDisplay:10.37,2013-09-13 01:35:00,
2013-09-12 21:40:00,75.9,65.0,29.88,NE,52,0.0,0.0,69,0.00,CLR,,0.00,WeatherDisplay:10.37,2013-09-13 01:40:00,
2013-09-12 21:45:00,75.7,65.3,29.88,NE,52,0.0,0.0,70,0.00,CLR,,0.00,WeatherDisplay:10.37,2013-09-13 01:45:00,
2013-09-12 21:50:00,75.7,65.3,29.88,NE,52,0.0,0.0,70,0.00,CLR,,0.00,WeatherDisplay:10.37,2013-09-13 01:50:00,
2013-09-12 21:55:00,75.6,65.5,29.88,NE,52,0.0,0.0,71,0.00,CLR,,0.00,WeatherDisplay:10.37,2013-09-13 01:55:00,
2013-09-12 22:00:00,75.6,65.5,29.88,NE,52,0.0,0.0,71,0.00,CLR,,0.00,WeatherDisplay:10.37,2013-09-13 02:00:00,
2013-09-12 22:05:00,75.6,65.9,29.88,NE,52,0.0,0.0,72,0.00,CLR,,0.00,WeatherDisplay:10.37,2013-09-13 02:05:00,
2013-09-12 22:10:00,75.4,65.7,29.88,NE,52,0.0,0.0,72,0.00,CLR,,0.00,WeatherDisplay:10.37,2013-09-13 02:10:00,
2013-09-12 22:15:00,75.4,66.1,29.88,NE,52,0.0,0.0,73,0.00,CLR,,0.00,WeatherDisplay:10.37,2013-09-13 02:15:00,
2013-09-12 22:20:00,75.4,66.1,29.88,NE,52,0.0,0.0,73,0.00,CLR,,0.00,WeatherDisplay:10.37,2013-09-13 02:20:00,
2013-09-12 22:25:00,75.2,65.9,29.88,NE,52,0.0,0.0,73,0.00,CLR,,0.00,WeatherDisplay:10.37,2013-09-13 02:25:00,
2013-09-12 22:30:00,75.2,66.3,29.88,NE,52,0.0,0.0,74,0.00,CLR,,0.00,WeatherDisplay:10.37,2013-09-13 02:30:00,
2013-09-12 22:35:00,75.2,66.3,29.88,NE,52,0.0,0.0,74,0.00,CLR,,0.00,WeatherDisplay:10.37,2013-09-13 02:35:00,
2013-09-12 22:40:00,75.0,66.2,29.86,NE,52,0.0,0.0,74,0.00,CLR,,0.00,WeatherDisplay:10.37,2013-09-13 02:40:00,
2013-09-12 22:45:00,74.8,66.0,29.85,NE,52,0.0,0.0,74,0.00,CLR,,0.00,WeatherDisplay:10.37,2013-09-13 02:45:00,
2013-09-12 22:50:00,74.8,66.0,29.85,NE,52,0.0,0.0,74,0.00,CLR,,0.00,WeatherDisplay:10.37,2013-09-13 02:50:00,
2013-09-12 22:55:00,74.7,65.8,29.85,NE,52,0.0,0.0,74,0.00,CLR,,0.00,WeatherDisplay:10.37,2013-09-13 02:55:00,
2013-09-12 23:00:00,74.5,65.6,29.85,NE,52,0.0,0.0,74,0.00,CLR,,0.00,WeatherDisplay:10.37,2013-09-13 03:00:00,
2013-09-12 23:05:00,74.3,65.9,29.85,NE,52,0.0,0.0,75,0.00,CLR,,0.00,WeatherDisplay:10.37,2013-09-13 03:05:00,
2013-09-12 23:10:00,74.0,65.9,29.85,NE,52,0.0,0.0,76,0.00,CLR,,0.00,WeatherDisplay:10.37,2013-09-13 03:10:00,
2013-09-12 23:15:00,73.8,65.7,29.85,NE,52,0.0,0.0,76,0.00,CLR,,0.00,WeatherDisplay:10.37,2013-09-13 03:15:00,
2013-09-12 23:20:00,73.5,65.5,29.85,NE,52,0.0,0.0,76,0.00,CLR,,0.00,WeatherDisplay:10.37,2013-09-13 03:20:00,
2013-09-12 23:25:00,73.4,65.7,29.85,NE,52,0.0,0.0,77,0.00,CLR,,0.00,WeatherDisplay:10.37,2013-09-13 03:25:00,
2013-09-12 23:30:00,73.2,65.6,29.85,NE,52,0.0,0.0,77,0.00,CLR,,0.00,WeatherDisplay:10.37,2013-09-13 03:30:00,
2013-09-12 23:35:00,73.2,65.9,29.85,NE,52,0.0,0.0,78,0.00,CLR,,0.00,WeatherDisplay:10.37,2013-09-13 03:35:00,
2013-09-12 23:40:00,73.0,65.8,29.85,NE,52,0.0,0.0,78,0.00,CLR,,0.00,WeatherDisplay:10.37,2013-09-13 03:40:00,
2013-09-12 23:45:00,73.0,65.8,29.85,NE,52,0.0,0.0,78,0.00,CLR,,0.00,WeatherDisplay:10.37,2013-09-13 03:45:00,
2013-09-12 23:50:00,73.0,66.1,29.85,NE,52,0.0,0.0,79,0.00,CLR,,0.00,WeatherDisplay:10.37,2013-09-13 03:50:00,
2013-09-12 23:55:00,73.0,66.1,29.85,NE,52,0.0,0.0,79,0.00,CLR,,0.00,WeatherDisplay:10.37,2013-09-13 03:55:00,